Time,TemperatureF,DewpointF,PressureIn,WindDirection,WindDirectionDegrees,WindSpeedMPH,WindSpeedGustMPH,Humidity,HourlyPrecipIn,Conditions,Clouds,dailyrainin,SoftwareType,DateUTC
2013-04-25 00:01:00,60.8,59.0,30.11,WSW,238,12.0,13.0,92,0.00,,,0.00,weatherlink.com 1.10,2013-04-25 04:01:00,
2013-04-25 00:16:00,61.1,59.0,30.11,SW,214,11.0,13.0,91,0.00,,,0.00,weatherlink.com 1.10,2013-04-25 04:16:00,
2013-04-25 00:31:00,60.9,58.0,30.11,SW,233,9.0,13.0,91,0.00,,,0.00,weatherlink.com 1.10,2013-04-25 04:31:00,
2013-04-25 00:46:00,60.8,59.0,30.11,SW,221,10.0,12.0,92,0.00,,,0.00,weatherlink.com 1.10,2013-04-25 04:46:00,
2013-04-25 01:01:00,61.4,59.0,30.11,WSW,255,12.0,15.0,92,0.00,,,0.00,weatherlink.com 1.10,2013-04-25 05:01:00,
2013-04-25 01:16:00,61.9,60.0,30.10,WSW,253,10.0,16.0,92,0.00,,,0.00,weatherlink.com 1.10,2013-04-25 05:16:00,
2013-04-25 01:31:00,62.6,60.0,30.10,WSW,256,13.0,17.0,91,0.00,,,0.00,weatherlink.com 1.10,2013-04-25 05:31:00,
2013-04-25 01:47:00,62.1,60.0,30.10,WSW,242,13.0,15.0,91,0.00,,,0.00,weatherlink.com 1.10,2013-04-25 05:47:00,
2013-04-25 02:02:00,62.0,59.0,30.09,WSW,253,10.0,17.0,91,0.00,,,0.00,weatherlink.com 1.10,2013-04-25 06:02:00,
2013-04-25 02:17:00,61.1,59.0,30.09,WSW,249,9.0,13.0,92,0.00,,,0.00,weatherlink.com 1.10,2013-04-25 06:17:00,
2013-04-25 02:32:00,60.5,58.0,30.09,West,274,8.0,11.0,92,0.00,,,0.00,weatherlink.com 1.10,2013-04-25 06:32:00,
2013-04-25 02:47:00,60.3,58.0,30.08,West,262,7.0,11.0,93,0.00,,,0.00,weatherlink.com 1.10,2013-04-25 06:47:00,
2013-04-25 03:02:00,60.5,59.0,30.08,WSW,246,11.0,13.0,93,0.00,,,0.00,weatherlink.com 1.10,2013-04-25 07:02:00,
2013-04-25 03:17:00,60.9,59.0,30.08,West,270,8.0,14.0,93,0.00,,,0.00,weatherlink.com 1.10,2013-04-25 07:17:00,
2013-04-25 03:33:00,61.4,59.0,30.08,WSW,254,8.0,15.0,92,0.00,,,0.00,weatherlink.com 1.10,2013-04-25 07:33:00,
2013-04-25 03:47:00,61.1,59.0,30.08,West,264,11.0,14.0,93,0.00,,,0.00,weatherlink.com 1.10,2013-04-25 07:47:00,
2013-04-25 04:02:00,60.4,58.0,30.09,West,266,7.0,11.0,93,0.00,,,0.00,weatherlink.com 1.10,2013-04-25 08:02:00,
2013-04-25 04:17:00,60.3,58.0,30.09,West,260,9.0,12.0,93,0.00,,,0.00,weatherlink.com 1.10,2013-04-25 08:17:00,
2013-04-25 04:32:00,60.2,59.0,30.09,WSW,240,10.0,12.0,94,0.00,,,0.00,weatherlink.com 1.10,2013-04-25 08:32:00,
2013-04-25 04:47:00,59.7,58.0,30.09,West,260,6.0,11.0,94,0.00,,,0.00,weatherlink.com 1.10,2013-04-25 08:47:00,
2013-04-25 05:02:00,59.4,58.0,30.10,West,260,7.0,10.0,94,0.00,,,0.00,weatherlink.com 1.10,2013-04-25 09:02:00,
2013-04-25 05:17:00,59.1,57.0,30.11,WSW,249,7.0,10.0,94,0.00,,,0.00,weatherlink.com 1.10,2013-04-25 09:17:00,
2013-04-25 05:32:00,-999.0,-99.9,30.11,North,-999,-999.0,-999.0,-999,0.00,,,0.00,weatherlink.com 1.10,2013-04-25 09:32:00,
2013-04-25 05:47:00,-999.0,-99.9,30.12,North,-999,-999.0,-999.0,-999,0.00,,,0.00,weatherlink.com 1.10,2013-04-25 09:47:00,
2013-04-25 06:02:00,-999.0,-99.9,30.13,North,-999,-999.0,-999.0,-999,0.00,,,0.00,weatherlink.com 1.10,2013-04-25 10:02:00,
2013-04-25 06:17:00,-999.0,-99.9,30.13,North,-999,-999.0,-999.0,-999,0.00,,,0.00,weatherlink.com 1.10,2013-04-25 10:17:00,
2013-04-25 06:32:00,-999.0,-99.9,30.14,North,-999,-999.0,-999.0,-999,0.00,,,0.00,weatherlink.com 1.10,2013-04-25 10:32:00,
2013-04-25 06:47:00,-999.0,-99.9,30.14,North,-999,-999.0,-999.0,-999,0.00,,,0.00,weatherlink.com 1.10,2013-04-25 10:47:00,
2013-04-25 07:02:00,-999.0,-99.9,30.14,North,-999,-999.0,-999.0,-999,0.00,,,0.00,weatherlink.com 1.10,2013-04-25 11:02:00,
2013-04-25 07:17:00,-999.0,-99.9,30.15,North,-999,-999.0,-999.0,-999,0.00,,,0.00,weatherlink.com 1.10,2013-04-25 11:17:00,
2013-04-25 07:33:00,60.0,59.0,30.15,West,265,7.0,10.0,95,0.00,,,0.00,weatherlink.com 1.10,2013-04-25 11:33:00,
2013-04-25 07:48:00,60.0,59.0,30.16,WSW,255,6.0,11.0,95,0.00,,,0.00,weatherlink.com 1.10,2013-04-25 11:48:00,
2013-04-25 08:03:00,60.0,59.0,30.16,West,278,6.0,10.0,95,0.00,,,0.00,weatherlink.com 1.10,2013-04-25 12:03:00,
2013-04-25 08:18:00,59.6,58.0,30.17,West,262,5.0,8.0,95,0.00,,,0.00,weatherlink.com 1.10,2013-04-25 12:18:00,
2013-04-25 08:33:00,59.6,58.0,30.17,West,276,4.0,7.0,95,0.00,,,0.00,weatherlink.com 1.10,2013-04-25 12:33:00,
2013-04-25 08:48:00,59.9,59.0,30.17,West,264,4.0,7.0,95,0.00,,,0.00,weatherlink.com 1.10,2013-04-25 12:48:00,
2013-04-25 09:03:00,61.0,60.0,30.18,West,278,2.0,4.0,96,0.00,,,0.00,weatherlink.com 1.10,2013-04-25 13:03:00,
2013-04-25 09:18:00,62.2,61.0,30.18,WNW,298,5.0,10.0,96,0.00,,,0.00,weatherlink.com 1.10,2013-04-25 13:18:00,
2013-04-25 09:33:00,63.3,62.0,30.19,NNW,338,9.0,13.0,94,0.00,,,0.00,weatherlink.com 1.10,2013-04-25 13:33:00,
2013-04-25 09:48:00,60.8,56.0,30.20,NNE,30,22.0,25.0,85,0.00,,,0.00,weatherlink.com 1.10,2013-04-25 13:48:00,
2013-04-25 10:03:00,56.7,54.0,30.21,NE,49,14.0,24.0,89,0.00,,,0.00,weatherlink.com 1.10,2013-04-25 14:03:00,
2013-04-25 10:18:00,57.4,53.0,30.21,NE,47,13.0,29.0,85,0.00,,,0.00,weatherlink.com 1.10,2013-04-25 14:18:00,
2013-04-25 10:33:00,57.9,53.0,30.22,NE,55,12.0,27.0,83,0.00,,,0.00,weatherlink.com 1.10,2013-04-25 14:33:00,
2013-04-25 10:48:00,57.5,52.0,30.22,NE,56,9.0,28.0,81,0.00,,,0.00,weatherlink.com 1.10,2013-04-25 14:48:00,
2013-04-25 11:03:00,57.1,51.0,30.22,NE,55,16.0,29.0,81,0.00,,,0.00,weatherlink.com 1.10,2013-04-25 15:03:00,
2013-04-25 11:18:00,57.1,51.0,30.22,NNE,30,19.0,30.0,80,0.00,,,0.00,weatherlink.com 1.10,2013-04-25 15:18:00,
2013-04-25 11:33:00,56.9,51.0,30.23,NE,44,13.0,27.0,81,0.00,,,0.00,weatherlink.com 1.10,2013-04-25 15:33:00,
2013-04-25 11:48:00,57.2,51.0,30.23,East,89,12.0,27.0,81,0.00,,,0.00,weatherlink.com 1.10,2013-04-25 15:48:00,
2013-04-25 12:03:00,57.2,52.0,30.23,NE,45,12.0,25.0,82,0.00,,,0.00,weatherlink.com 1.10,2013-04-25 16:03:00,
2013-04-25 12:18:00,57.3,51.0,30.23,NE,47,17.0,26.0,80,0.00,,,0.00,weatherlink.com 1.10,2013-04-25 16:18:00,
2013-04-25 12:33:00,57.0,51.0,30.23,ENE,78,13.0,25.0,81,0.00,,,0.00,weatherlink.com 1.10,2013-04-25 16:33:00,
2013-04-25 12:48:00,55.5,50.0,30.23,NE,43,10.0,25.0,81,0.00,,,0.00,weatherlink.com 1.10,2013-04-25 16:48:00,
2013-04-25 13:03:00,56.2,50.0,30.24,NE,56,19.0,24.0,80,0.00,,,0.00,weatherlink.com 1.10,2013-04-25 17:03:00,
2013-04-25 13:18:00,55.8,51.0,30.24,ENE,72,16.0,22.0,83,0.00,,,0.00,weatherlink.com 1.10,2013-04-25 17:18:00,
2013-04-25 13:33:00,55.7,50.0,30.24,NE,55,16.0,26.0,80,0.00,,,0.00,weatherlink.com 1.10,2013-04-25 17:33:00,
2013-04-25 13:48:00,56.0,49.0,30.23,NE,49,18.0,25.0,76,0.00,,,0.00,weatherlink.com 1.10,2013-04-25 17:48:00,
2013-04-25 14:03:00,56.3,50.0,30.23,ENE,75,14.0,23.0,78,0.00,,,0.00,weatherlink.com 1.10,2013-04-25 18:03:00,
2013-04-25 14:18:00,55.4,48.0,30.23,NE,46,21.0,25.0,77,0.00,,,0.00,weatherlink.com 1.10,2013-04-25 18:18:00,
2013-04-25 14:33:00,55.4,48.0,30.23,ENE,69,18.0,21.0,77,0.00,,,0.00,weatherlink.com 1.10,2013-04-25 18:33:00,
2013-04-25 14:48:00,55.3,48.0,30.24,NNE,27,21.0,23.0,75,0.00,,,0.00,weatherlink.com 1.10,2013-04-25 18:48:00,
2013-04-25 15:03:00,55.7,48.0,30.24,East,82,11.0,19.0,76,0.00,,,0.00,weatherlink.com 1.10,2013-04-25 19:03:00,
2013-04-25 15:19:00,54.7,46.0,30.24,ENE,72,11.0,24.0,73,0.00,,,0.00,weatherlink.com 1.10,2013-04-25 19:19:00,
2013-04-25 15:34:00,54.5,47.0,30.24,NE,37,11.0,23.0,76,0.00,,,0.00,weatherlink.com 1.10,2013-04-25 19:34:00,
2013-04-25 15:49:00,54.7,48.0,30.24,NE,46,21.0,23.0,77,0.00,,,0.00,weatherlink.com 1.10,2013-04-25 19:49:00,
2013-04-25 16:04:00,54.2,48.0,30.25,NE,47,8.0,22.0,80,0.00,,,0.00,weatherlink.com 1.10,2013-04-25 20:04:00,
2013-04-25 16:19:00,54.8,48.0,30.24,NNE,30,17.0,21.0,78,0.00,,,0.00,weatherlink.com 1.10,2013-04-25 20:19:00,
2013-04-25 16:34:00,54.4,47.0,30.25,North,5,7.0,22.0,76,0.00,,,0.00,weatherlink.com 1.10,2013-04-25 20:34:00,
2013-04-25 16:50:00,54.5,46.0,30.25,NNE,15,15.0,19.0,74,0.00,,,0.00,weatherlink.com 1.10,2013-04-25 20:50:00,
2013-04-25 17:04:00,54.7,47.0,30.25,NE,37,17.0,17.0,75,0.00,,,0.00,weatherlink.com 1.10,2013-04-25 21:04:00,
2013-04-25 17:19:00,54.3,47.0,30.26,NE,53,11.0,21.0,76,0.00,,,0.00,weatherlink.com 1.10,2013-04-25 21:19:00,
2013-04-25 17:34:00,53.9,46.0,30.26,NE,47,12.0,20.0,75,0.00,,,0.00,weatherlink.com 1.10,2013-04-25 21:34:00,
2013-04-25 17:49:00,54.1,47.0,30.26,NE,48,14.0,21.0,78,0.00,,,0.00,weatherlink.com 1.10,2013-04-25 21:49:00,
2013-04-25 18:04:00,53.7,46.0,30.25,NE,51,6.0,18.0,75,0.00,,,0.00,weatherlink.com 1.10,2013-04-25 22:04:00,
2013-04-25 18:19:00,53.5,46.0,30.26,NE,40,7.0,15.0,76,0.00,,,0.00,weatherlink.com 1.10,2013-04-25 22:19:00,
2013-04-25 18:34:00,53.4,46.0,30.25,NE,53,12.0,16.0,77,0.00,,,0.00,weatherlink.com 1.10,2013-04-25 22:34:00,
2013-04-25 18:49:00,53.2,47.0,30.25,NE,34,9.0,14.0,78,0.00,,,0.00,weatherlink.com 1.10,2013-04-25 22:49:00,
2013-04-25 19:04:00,52.8,47.0,30.24,NNE,32,6.0,15.0,80,0.00,,,0.00,weatherlink.com 1.10,2013-04-25 23:04:00,
2013-04-25 19:19:00,52.4,47.0,30.25,NE,51,10.0,12.0,82,0.00,,,0.00,weatherlink.com 1.10,2013-04-25 23:19:00,
2013-04-25 19:34:00,52.0,48.0,30.25,NE,46,11.0,14.0,85,0.00,,,0.00,weatherlink.com 1.10,2013-04-25 23:34:00,
2013-04-25 19:49:00,51.8,48.0,30.27,NE,44,3.0,12.0,87,0.00,,,0.00,weatherlink.com 1.10,2013-04-25 23:49:00,
2013-04-25 20:04:00,52.1,49.0,30.26,NE,46,9.0,13.0,88,0.00,,,0.00,weatherlink.com 1.10,2013-04-26 00:04:00,
2013-04-25 20:19:00,52.5,49.0,30.25,ESE,123,5.0,13.0,87,0.00,,,0.00,weatherlink.com 1.10,2013-04-26 00:19:00,
2013-04-25 20:34:00,53.4,50.0,30.27,NE,43,7.0,12.0,88,0.00,,,0.00,weatherlink.com 1.10,2013-04-26 00:34:00,
2013-04-25 20:49:00,53.2,50.0,30.27,NE,41,8.0,13.0,89,0.00,,,0.00,weatherlink.com 1.10,2013-04-26 00:49:00,
2013-04-25 21:04:00,53.2,50.0,30.28,ENE,75,8.0,11.0,89,0.00,,,0.00,weatherlink.com 1.10,2013-04-26 01:04:00,
2013-04-25 21:19:00,53.5,50.0,30.29,ENE,69,6.0,10.0,89,0.00,,,0.00,weatherlink.com 1.10,2013-04-26 01:19:00,
2013-04-25 21:34:00,53.6,50.0,30.28,ENE,62,5.0,13.0,88,0.00,,,0.00,weatherlink.com 1.10,2013-04-26 01:34:00,
2013-04-25 21:49:00,53.6,50.0,30.27,NE,40,9.0,12.0,88,0.00,,,0.00,weatherlink.com 1.10,2013-04-26 01:49:00,
2013-04-25 22:04:00,53.7,50.0,30.28,NNE,25,9.0,12.0,88,0.00,,,0.00,weatherlink.com 1.10,2013-04-26 02:04:00,
2013-04-25 22:19:00,53.8,50.0,30.28,ENE,57,8.0,12.0,88,0.00,,,0.00,weatherlink.com 1.10,2013-04-26 02:19:00,
2013-04-25 22:34:00,54.1,51.0,30.29,NNE,30,10.0,14.0,88,0.00,,,0.00,weatherlink.com 1.10,2013-04-26 02:34:00,
2013-04-25 22:49:00,54.1,51.0,30.29,ENE,60,3.0,10.0,88,0.00,,,0.00,weatherlink.com 1.10,2013-04-26 02:49:00,
2013-04-25 23:04:00,54.2,51.0,30.29,NE,44,6.0,11.0,87,0.00,,,0.00,weatherlink.com 1.10,2013-04-26 03:04:00,
2013-04-25 23:19:00,54.1,50.0,30.29,NE,48,5.0,14.0,87,0.00,,,0.00,weatherlink.com 1.10,2013-04-26 03:19:00,
2013-04-25 23:34:00,54.0,50.0,30.30,NE,48,7.0,11.0,87,0.00,,,0.00,weatherlink.com 1.10,2013-04-26 03:34:00,
2013-04-25 23:49:00,54.1,50.0,30.29,NE,39,9.0,14.0,87,0.00,,,0.00,weatherlink.com 1.10,2013-04-26 03:49:00,